Volver al catálogo

ARIANE 44L DEB

ActivoHEO
NORAD 33590·DEBRIS·🇫🇷 France

Lanzado Jan 15, 1991 desde Guiana Space Centre

Loading…

Próximos Pases (próximas 24 horas)

TLE

ActualizadoSource: Space-Track

Época: Sep 14, 2026, 17:12 UTC

1 33590U 91003T   26257.71703400 -.00000538  00000-0 -59182-2 0  9992
2 33590   7.6370  67.3411 6794661  45.1024  42.2434  2.68403035133054

Sigue ARIANE 44L DEB en tiempo real con AllMySat

Download on the App Store